Retour au catalogue

CZ-6A DEB

ActifPO
NORAD 61491·DEBRIS·🇨🇳 China

Lancé Aug 6, 2024 depuis Taiyuan Satellite Launch Center

Loading…

Prochains Passages (prochaines 24 heures)

TLE

FraisSource: Space-Track

Époque: Sep 14, 2026, 16:22 UTC

1 61491U 24140AAZ 26257.68211992  .00000296  00000-0  10142-3 0  9990
2 61491  88.6671 231.8723 0035219 325.3982  34.4923 14.33298426105044

Suivez CZ-6A DEB en temps réel avec AllMySat

Download on the App Store